Theta_e
306 306 306 306 306 307 307 307 306 306 306 306 306 306 307 307 306 307 307 307 307 307 307 307 308 308 308 308 308 307 304 306 310 310 310 308 305 304 304 304 304 304 304 312 317 314 316 317 317 317 315 315 315 315 315 316 316 315 315 314 312 313 313 314 315 316 316 317 316 316 316 316 324 336 340 340 341 343 345 347 347 347 348 348 350 350 349 349
305 306 306 306 306 307 307 306 306 306 306 306 306 306 306 306 307 307 307 307 307 307 307 307 307 308 308 307 308 305 305 309 310 309 310 307 304 304 303 304 304 303 306 314 317 315 316 315 316 316 315 314 313 315 315 316 316 315 316 315 313 314 315 315 316 316 316 317 316 316 316 315 322 332 338 336 338 341 344 347 348 348 347 347 349 349 348 349
305 305 306 306 306 306 306 306 306 306 305 306 306 306 306 306 307 307 306 307 307 307 307 307 307 307 307 307 306 304 307 310 309 309 310 307 306 305 304 303 303 303 306 314 315 315 316 315 316 315 313 313 313 314 314 316 315 314 316 315 314 315 315 315 315 316 317 316 316 316 315 316 318 323 328 333 335 335 340 345 347 349 348 347 346 348 349 348
305 305 305 305 305 306 306 306 306 306 305 305 306 306 306 306 306 306 306 306 306 307 307 307 307 307 307 307 305 305 308 310 308 312 311 308 307 306 306 305 302 303 307 313 313 314 315 315 316 314 313 312 313 314 313 315 315 315 316 314 315 315 315 315 314 316 316 316 316 316 316 316 317 317 322 331 332 330 335 339 342 348 349 347 345 347 349 349
305 305 305 305 305 305 305 305 305 305 305 305 305 305 306 306 306 306 306 306 306 306 306 306 306 306 307 306 304 306 310 308 308 315 311 307 306 305 306 307 303 305 309 311 312 313 313 315 315 313 313 312 313 314 312 315 315 316 316 314 315 316 313 314 315 315 315 316 315 316 316 315 316 317 324 330 328 328 332 333 338 347 348 347 346 346 348 349
305 305 305 305 304 305 305 304 304 304 304 305 305 305 305 306 305 305 306 306 306 306 306 306 306 306 306 304 304 309 310 305 309 314 310 305 304 304 304 307 306 307 310 310 311 312 312 313 313 313 312 312 313 313 312 315 314 315 315 315 316 315 314 315 316 315 315 316 315 316 315 315 315 316 325 328 323 326 330 333 339 346 348 348 348 348 346 347
305 305 305 305 304 305 304 304 304 304 304 304 305 305 305 305 305 305 306 306 306 306 306 306 306 306 305 304 307 310 307 305 308 309 307 303 303 305 305 306 307 308 310 310 312 312 312 312 312 312 311 311 312 313 313 314 314 313 313 316 316 315 316 315 316 315 316 316 315 316 313 315 315 316 324 324 324 327 329 337 343 346 349 349 347 347 345 347
304 305 305 304 304 304 304 304 303 303 305 305 304 305 305 305 305 305 305 306 306 305 306 306 306 306 305 306 309 307 304 306 305 305 304 304 308 309 308 310 310 309 310 310 312 312 312 312 311 311 311 311 312 312 313 314 314 312 312 315 315 315 315 315 315 315 316 316 315 314 313 315 315 315 319 321 330 334 333 340 344 345 347 346 346 346 346 347
304 304 304 304 304 304 304 304 303 302 304 305 305 305 305 305 305 305 305 305 305 305 306 305 306 306 305 308 308 304 304 306 304 307 308 311 316 315 313 315 312 309 310 311 312 312 312 312 311 311 311 311 312 312 313 314 313 314 313 314 314 314 315 315 315 315 315 316 314 314 314 315 314 315 316 323 337 339 339 343 345 346 346 346 346 345 345 346
304 304 303 304 304 304 304 304 304 303 303 304 304 305 305 305 305 305 304 305 305 305 305 305 305 305 306 308 307 303 304 307 308 311 312 314 319 317 316 315 311 309 310 312 311 312 312 311 312 312 311 311 312 312 313 313 313 315 314 314 315 315 315 316 315 315 316 315 315 314 314 315 314 314 314 324 339 343 342 344 345 346 346 346 345 343 345 345
303 303 303 303 303 304 304 304 304 303 303 304 304 304 305 304 304 304 304 304 305 305 305 305 305 305 307 308 306 304 306 310 313 314 313 317 319 317 316 314 310 310 311 311 312 312 311 311 312 311 311 311 312 312 313 313 313 315 314 314 315 314 315 315 315 315 315 315 315 314 315 315 314 315 317 327 339 342 342 344 346 346 346 346 345 342 343 344
303 303 302 302 303 303 304 304 304 303 303 303 304 304 304 304 304 304 304 304 305 304 304 305 304 305 308 308 306 305 307 311 313 312 313 316 316 315 315 314 311 310 311 312 313 312 312 312 312 310 310 312 312 312 314 313 313 314 314 314 314 314 315 314 315 315 315 315 314 315 314 314 314 315 319 329 341 341 340 343 344 346 347 345 344 342 342 344
303 302 302 302 302 303 303 304 303 303 303 304 304 304 304 304 304 304 304 304 304 304 304 304 304 305 307 307 307 305 305 307 307 306 308 310 312 313 314 313 312 311 313 313 313 313 312 313 312 311 311 313 313 313 314 314 313 313 313 313 314 313 313 314 314 314 315 314 314 314 311 312 315 315 315 322 337 342 338 340 341 345 347 345 344 342 342 344
303 303 302 302 302 303 303 303 303 302 303 304 304 304 304 304 303 303 303 303 304 304 304 304 304 306 307 307 307 305 301 303 304 303 304 305 306 309 312 313 312 312 313 313 314 313 313 313 313 312 312 314 314 312 313 314 313 313 312 312 313 311 310 314 315 314 316 313 314 315 310 312 316 317 317 317 331 341 335 336 341 344 346 344 344 343 341 343
303 303 303 302 303 303 303 303 303 303 303 304 303 303 303 303 303 303 303 303 304 303 304 304 305 307 307 307 307 305 303 304 305 304 303 304 304 305 310 312 312 313 313 313 314 313 313 313 312 312 312 314 315 313 312 313 313 313 311 310 311 310 311 314 314 314 315 313 314 314 310 313 316 321 323 319 327 338 332 333 340 343 344 343 343 343 341 341
303 303 303 302 302 303 303 302 303 303 303 303 303 303 302 302 302 302 302 303 303 303 303 305 307 307 307 306 306 306 307 307 306 306 305 304 304 305 311 313 313 313 314 313 312 313 313 313 312 313 313 314 314 313 313 312 311 313 311 308 310 310 310 312 313 314 315 314 315 314 312 315 319 323 326 324 327 332 329 331 338 341 343 344 343 343 342 341
303 303 303 302 301 302 303 302 303 303 303 303 302 302 301 301 301 301 302 303 303 303 304 307 307 307 308 306 305 305 307 309 307 307 307 305 304 307 312 314 314 314 315 313 312 312 312 312 313 314 314 315 314 313 312 309 309 311 311 310 311 310 310 310 312 314 314 314 314 314 316 319 322 325 326 327 329 330 330 331 336 340 341 343 343 341 341 341
303 302 302 302 301 302 302 302 303 303 303 302 301 300 300 301 302 303 304 304 304 305 306 307 307 308 309 307 306 306 306 308 308 308 308 307 305 307 312 314 314 314 314 312 311 311 311 312 313 313 314 314 314 314 311 310 310 310 310 311 311 310 310 310 311 313 314 315 315 314 318 322 324 327 328 329 330 331 333 332 333 337 340 342 343 341 341 341
303 302 302 302 301 301 302 302 302 303 302 301 301 301 301 304 305 305 305 305 306 306 307 307 307 306 306 306 306 307 307 307 307 308 309 308 306 308 311 314 314 313 312 311 311 311 311 312 312 311 312 313 315 315 313 312 313 312 311 311 310 309 310 312 313 314 314 314 315 315 318 323 326 329 330 330 331 332 333 333 332 333 339 342 342 342 342 342
302 302 301 302 301 301 302 302 302 302 302 301 301 302 303 306 306 305 305 305 305 305 304 306 306 304 304 306 307 307 307 307 307 309 310 308 308 309 311 314 314 313 312 312 311 311 311 312 311 310 312 313 314 315 314 315 314 314 312 311 310 309 309 313 314 314 315 314 318 322 322 326 329 330 331 330 331 332 333 335 334 333 338 341 341 342 343 343
302 301 301 301 301 301 302 302 302 302 301 301 301 302 303 304 305 306 306 305 305 305 304 305 306 304 304 306 307 307 306 307 308 310 311 309 309 310 310 314 314 313 313 312 312 312 311 311 311 311 313 314 314 314 316 315 314 313 312 310 310 310 310 313 314 314 314 316 321 324 324 327 331 331 331 330 331 332 333 335 336 336 337 338 339 341 342 342
301 301 301 301 301 302 302 301 302 301 301 301 301 302 302 302 303 304 306 306 306 306 304 304 305 305 305 306 307 306 304 305 306 308 311 309 308 310 312 314 314 314 313 312 313 312 311 311 311 311 312 314 314 315 316 316 314 313 312 311 309 310 312 313 314 314 314 317 321 323 323 327 331 331 331 331 332 332 332 333 333 335 335 335 338 340 340 340
301 301 301 301 301 301 302 301 301 301 301 301 302 302 302 302 302 303 305 306 305 306 305 304 303 303 303 304 305 305 303 304 305 308 311 309 308 310 312 313 314 313 312 312 313 312 311 311 311 311 313 315 316 315 316 315 314 313 312 310 308 311 312 311 313 315 315 318 322 323 324 327 330 331 331 331 331 331 331 330 331 332 333 334 336 337 338 337
300 300 300 301 301 301 302 301 301 301 301 301 301 302 302 302 303 304 306 306 305 306 307 305 304 303 303 303 305 304 302 303 305 307 310 309 308 311 312 313 314 313 312 311 312 312 312 311 312 313 314 315 314 314 315 314 313 314 313 311 310 311 311 311 314 316 318 321 324 322 320 324 330 331 331 331 330 331 329 330 331 331 333 334 336 336 334 333
300 300 300 301 301 301 301 300 301 301 301 301 302 302 302 302 304 305 306 308 307 307 307 307 306 305 305 305 305 304 303 303 304 307 311 310 309 311 313 313 313 313 312 311 311 311 311 312 313 314 313 312 313 313 314 314 312 312 314 313 312 312 313 314 316 315 316 318 322 319 313 319 329 330 331 331 330 330 330 331 332 333 333 333 333 332 331 330
299 300 300 301 301 301 300 300 301 301 301 302 302 303 303 303 304 304 306 308 307 307 307 306 306 306 307 307 305 304 304 304 305 307 310 311 310 311 313 314 314 313 313 311 311 311 311 313 313 313 312 312 313 313 313 314 312 311 313 314 313 313 313 314 314 313 312 314 320 320 313 317 327 329 330 331 330 330 330 333 332 330 331 330 329 328 327 327
299 299 300 301 301 300 300 301 302 301 301 302 302 303 304 303 303 304 308 308 307 307 307 306 305 306 307 307 306 305 305 306 306 306 309 311 311 311 313 315 314 314 313 312 312 311 312 314 313 312 313 313 313 312 313 313 311 311 314 314 313 313 312 313 313 311 312 315 319 319 314 315 322 327 329 329 330 331 332 332 331 328 327 327 326 325 324 323
299 300 300 301 301 300 301 301 301 301 301 302 303 303 303 303 303 305 309 309 308 308 308 306 306 306 307 308 306 305 307 307 306 306 309 311 311 311 312 314 314 314 314 313 312 312 314 313 312 313 313 313 312 312 313 313 312 312 314 313 313 313 313 313 312 311 313 314 313 314 313 312 318 327 329 328 329 332 333 332 330 327 325 324 323 322 321 321
299 300 300 301 300 300 300 301 301 301 301 302 302 302 302 302 304 307 308 308 308 307 308 308 307 307 308 308 306 305 307 308 307 307 309 310 311 311 312 313 314 313 314 313 312 313 314 313 313 313 313 313 312 313 313 313 313 313 312 313 313 313 313 313 312 310 312 313 310 311 312 311 317 326 328 327 329 332 332 331 328 326 324 322 321 320 320 319
299 300 300 300 301 300 300 300 300 301 301 301 301 302 302 304 307 308 307 308 308 307 307 307 307 308 308 308 307 305 306 308 309 308 309 310 311 311 311 313 313 313 313 312 312 313 314 313 313 313 313 313 313 313 313 313 313 312 312 312 312 312 313 313 313 310 311 312 310 311 313 312 315 322 325 327 330 331 332 330 327 324 322 320 319 318 318 318
299 300 300 300 301 300 300 301 300 300 300 301 301 302 304 307 308 308 308 308 309 308 306 307 308 309 309 308 307 306 305 308 310 309 309 310 311 311 311 312 313 313 313 312 312 313 314 313 314 314 313 313 314 313 313 313 312 312 312 312 311 312 312 311 311 311 311 312 311 312 314 312 314 321 326 329 331 331 330 329 326 323 321 319 318 317 316 317
299 300 300 300 300 300 300 301 301 301 301 301 302 303 307 309 308 308 308 307 310 311 309 308 308 309 309 308 307 306 305 308 310 309 310 310 310 311 311 312 313 313 313 312 312 313 314 313 313 314 313 314 314 313 313 312 312 313 312 311 311 311 312 311 310 311 311 312 314 314 312 313 318 324 327 330 331 329 327 326 323 321 320 318 317 316 316 315
299 299 299 299 300 300 300 300 301 301 301 301 302 305 308 309 307 308 307 307 311 312 311 310 309 309 310 308 307 307 306 308 310 310 310 310 311 311 311 312 313 313 314 313 312 313 313 313 312 313 314 313 313 312 312 312 312 312 311 310 310 311 313 314 312 310 311 313 315 316 314 319 328 330 330 331 329 326 324 322 320 319 318 317 316 316 315 315
299 299 299 300 300 300 300 300 301 301 301 301 303 307 309 309 307 307 307 308 311 310 310 311 310 309 310 309 308 306 306 309 310 311 310 310 311 311 311 312 311 312 314 313 313 313 312 313 313 313 313 313 313 313 312 313 312 312 312 311 310 310 312 313 311 310 311 314 315 316 317 323 330 331 330 328 326 324 323 320 319 318 317 317 316 315 315 314
299 299 300 300 300 300 300 300 300 301 301 302 305 309 310 309 307 307 308 309 311 311 311 311 310 309 310 310 309 306 307 310 311 311 310 310 311 311 311 311 312 312 313 314 314 313 311 313 313 312 312 313 313 313 313 313 311 312 313 310 310 311 310 311 313 314 312 313 317 320 324 327 330 330 327 326 325 323 322 320 319 318 317 317 316 315 314 313
299 300 300 301 301 301 301 301 301 301 300 302 307 309 309 308 307 309 311 311 311 312 311 310 310 309 309 310 309 307 308 310 311 311 311 311 310 311 311 312 312 312 313 314 314 313 311 312 312 312 312 312 313 313 313 312 312 312 311 309 311 312 312 312 314 317 314 313 319 324 329 331 332 331 328 326 325 323 322 320 318 318 317 316 315 313 313 312
300 301 301 301 301 302 302 301 301 301 301 304 308 309 309 308 307 308 311 311 311 311 311 312 311 309 309 310 309 307 308 310 311 311 312 311 310 311 311 311 312 312 312 314 314 313 312 311 312 312 311 312 313 312 314 313 312 312 310 311 312 313 315 312 312 315 312 313 321 324 328 331 332 333 331 327 326 324 322 320 318 317 316 315 314 312 311 311
301 301 302 303 303 304 303 302 301 301 302 305 308 308 308 307 306 307 309 310 310 310 311 313 312 309 309 309 309 307 307 310 311 311 311 311 312 311 310 310 311 311 312 313 314 314 313 311 312 312 311 312 312 312 313 313 313 313 311 312 312 311 313 311 312 314 312 314 322 323 325 328 328 331 332 329 327 326 323 321 319 317 315 314 313 312 312 311
301 302 304 305 305 305 303 301 302 302 304 306 307 308 308 307 306 306 307 308 309 309 311 313 312 311 310 309 308 308 308 309 310 311 311 311 312 312 310 311 311 311 312 312 313 314 313 312 312 312 312 312 312 313 312 312 313 313 312 312 312 312 312 311 312 313 311 314 322 324 324 324 324 329 332 329 327 326 323 320 318 316 314 314 313 312 312 311
302 304 305 305 304 304 302 302 303 303 305 307 307 307 307 306 305 306 306 307 308 309 311 313 312 313 312 310 309 308 308 309 310 311 311 312 313 312 310 311 311 310 312 311 312 313 313 314 313 312 312 312 311 312 313 313 312 312 312 311 312 312 312 313 313 311 311 312 318 324 323 322 325 328 329 328 327 326 323 319 317 315 312 311 311 311 310 310
303 305 307 304 303 303 303 303 303 302 304 306 306 307 306 306 306 306 305 306 307 308 309 310 311 313 313 311 310 309 308 309 310 310 310 311 313 312 310 311 311 310 311 311 312 312 313 313 313 312 311 311 312 315 316 316 313 313 313 310 311 313 312 314 313 312 312 311 314 318 320 324 327 328 328 327 326 324 321 317 316 314 311 310 310 309 309 309
304 306 307 304 302 303 304 303 301 302 304 305 306 306 306 306 306 305 305 306 308 308 308 309 310 311 312 312 311 309 308 309 309 311 311 311 313 313 311 312 312 310 311 312 311 315 316 314 312 313 313 313 317 318 318 317 316 315 314 312 312 313 312 311 312 313 313 312 314 313 315 325 325 322 323 322 321 320 318 316 314 312 311 310 309 309 308 308
305 305 305 303 302 304 305 303 301 302 303 304 305 305 305 306 305 304 304 306 308 309 309 309 310 310 311 311 310 310 310 312 312 312 312 312 315 317 314 313 313 311 311 312 312 316 318 317 315 315 317 316 317 317 317 317 316 315 316 316 314 313 314 313 312 314 313 313 314 310 315 327 322 317 317 317 316 317 315 314 313 311 310 309 308 308 308 307
305 304 304 303 303 304 306 303 302 302 303 304 305 304 304 305 304 304 304 306 308 309 309 309 309 309 310 309 310 310 311 314 315 314 314 316 318 318 316 315 314 311 310 313 313 314 316 318 318 317 318 319 318 317 317 316 315 316 318 319 319 317 317 316 315 315 313 314 314 309 317 327 320 315 314 313 313 314 312 312 311 310 309 308 307 307 306 307
305 305 305 303 304 305 306 306 305 302 303 305 305 305 305 304 304 304 304 306 307 308 309 309 308 308 309 309 311 311 311 314 316 316 316 318 319 318 318 317 314 310 313 318 316 314 317 321 321 318 316 317 318 318 318 317 316 319 321 320 320 320 318 316 314 312 313 317 314 310 321 325 318 315 314 312 312 311 310 310 309 308 308 307 306 306 305 306
306 306 304 303 305 306 307 308 308 306 305 306 306 307 306 305 305 306 305 306 307 307 308 308 307 308 310 311 312 313 311 313 316 316 316 318 320 319 318 317 315 316 321 322 319 317 320 322 323 322 319 318 320 322 321 320 318 320 322 320 321 322 323 320 313 311 315 317 315 317 325 323 319 316 314 313 311 310 309 309 308 307 307 307 306 305 305 305
306 305 304 304 305 306 307 308 309 308 307 306 306 306 306 305 306 306 306 307 308 307 307 308 307 309 312 314 315 314 312 311 314 316 317 318 320 320 319 318 318 321 322 320 319 319 321 321 321 323 322 320 321 321 321 322 322 323 323 323 322 322 324 323 318 317 317 313 316 325 327 322 320 318 314 312 311 309 309 308 307 307 306 306 305 304 304 304
306 305 305 306 305 305 306 307 309 309 308 308 307 305 305 307 307 307 308 309 308 308 309 311 311 311 314 315 315 315 313 312 316 319 319 320 320 320 320 319 319 321 319 317 319 320 321 320 320 321 320 319 320 320 320 321 322 322 323 324 324 324 325 326 325 326 324 318 321 327 325 321 319 316 313 311 309 307 307 306 306 306 305 305 304 304 303 303
306 305 306 308 308 308 307 308 310 310 308 308 308 306 306 309 309 310 310 310 309 309 310 314 315 313 313 313 315 316 314 313 318 321 321 321 321 321 320 319 318 318 317 318 320 321 321 319 319 320 320 319 319 319 320 320 320 321 321 321 323 324 325 326 326 326 327 326 326 325 321 319 315 311 310 308 306 306 305 305 305 305 305 304 304 303 303 303
306 306 307 309 309 310 310 310 310 311 309 307 308 308 308 310 310 310 309 309 310 310 311 313 316 314 313 314 315 317 316 316 319 321 321 322 322 321 321 320 318 318 319 320 320 321 320 319 319 321 320 320 319 319 319 320 320 320 319 319 321 322 322 323 323 323 324 324 321 318 316 314 310 307 306 305 305 305 304 304 304 304 303 303 302 302 302 302
305 306 307 309 310 310 311 311 311 311 309 307 309 311 311 311 311 310 308 308 310 311 312 315 315 315 315 315 316 317 316 317 318 318 318 319 318 317 317 318 318 319 321 321 321 321 320 319 319 321 321 320 320 319 320 320 320 319 318 318 319 319 319 319 320 321 322 320 317 317 316 312 308 306 305 305 304 304 304 303 303 303 302 302 302 302 302 301
305 306 306 308 310 310 310 312 311 309 308 308 309 311 312 312 311 310 310 309 309 310 312 315 315 316 317 317 316 314 314 315 315 315 315 316 315 315 315 316 317 319 321 321 321 321 319 319 320 321 322 321 320 320 321 321 320 321 318 315 317 318 317 317 317 318 319 319 319 318 314 309 306 306 305 305 304 304 303 303 302 302 302 302 302 301 301 301
Wind_Speed
9 8 9 10 10 10 10 10 10 10 11 10 10 11 11 11 11 11 11 12 12 12 13 14 14 14 15 16 16 17 17 17 17 15 16 15 12 14 14 9 6 9 8 9 13 13 13 13 12 12 10 7 6 5 7 6 5 5 5 6 5 5 4 3 4 1 2 4 7 8 9 8 2 3 2 5 7 9 9 9 9 9 9 10 15 20 22 20
10 10 10 10 10 10 10 10 10 10 11 11 10 10 11 11 11 11 11 12 13 12 12 14 13 14 15 16 16 16 17 16 17 19 18 16 15 17 18 14 10 9 10 12 15 15 13 12 13 12 9 6 5 5 7 7 6 7 5 5 6 5 2 1 1 2 3 4 7 7 8 8 4 2 1 5 9 10 9 9 8 10 11 12 16 19 20 19
11 10 10 10 10 9 9 10 10 10 10 12 11 10 10 11 11 11 12 11 12 12 12 13 13 14 14 16 16 14 15 15 14 14 8 4 5 10 15 18 16 11 12 13 15 14 11 11 14 12 8 6 5 6 7 7 7 7 6 6 6 4 2 1 2 2 4 6 6 7 8 6 4 3 4 3 8 9 9 9 7 9 11 12 14 16 18 18
10 10 10 10 10 10 10 10 10 11 10 10 11 11 10 11 11 11 11 11 12 12 12 12 13 13 14 16 14 12 12 13 8 2 6 7 6 5 3 14 19 16 13 12 12 13 11 10 13 11 8 7 6 7 8 8 6 5 6 7 3 2 3 3 2 2 3 6 6 7 8 4 4 3 4 5 9 7 8 9 7 11 14 14 14 15 17 17
10 10 10 10 10 10 11 11 12 13 12 11 10 11 11 11 11 11 11 11 12 12 11 12 13 13 15 15 11 9 9 7 1 7 9 6 7 9 5 6 17 19 15 13 12 12 11 11 12 10 8 7 7 7 9 10 7 5 8 10 3 2 5 2 3 0 3 5 6 7 7 6 5 2 4 7 6 4 6 7 7 12 15 16 16 16 15 14
10 10 10 10 10 10 11 12 13 14 13 12 11 10 11 11 11 11 11 11 11 12 11 11 12 13 14 12 9 8 8 4 4 7 4 5 9 9 7 3 12 20 17 15 14 13 13 12 11 10 8 8 9 9 9 11 9 7 8 9 7 7 6 2 2 0 3 6 7 7 7 7 6 1 3 4 3 8 4 3 8 13 14 15 16 15 14 13
10 10 10 10 11 11 12 12 14 14 12 12 12 11 11 11 11 11 11 11 11 11 11 10 11 13 13 10 6 7 8 8 2 2 6 13 14 12 7 2 12 20 19 18 17 14 13 14 13 10 9 8 9 11 9 10 11 10 8 7 9 9 7 5 4 3 4 6 7 7 6 6 5 2 3 1 7 7 2 4 10 13 14 15 14 13 13 13
10 10 10 11 11 12 12 12 13 13 11 10 12 12 12 12 11 12 11 11 11 11 11 10 10 11 11 8 6 6 9 13 7 6 13 14 12 8 1 7 16 21 20 21 18 15 14 14 14 10 10 9 9 11 9 9 11 13 10 6 8 8 6 6 4 5 5 5 6 5 6 5 2 1 4 4 6 4 4 8 11 13 14 13 13 13 12 11
10 10 11 12 12 12 12 12 12 13 12 11 11 11 11 11 11 12 11 11 12 11 10 9 9 10 9 7 7 6 7 9 7 10 11 7 4 2 7 12 19 22 20 21 19 17 14 13 15 12 10 9 8 10 10 9 8 11 13 9 8 8 6 6 5 6 5 4 5 4 5 3 2 3 5 6 5 5 7 10 12 12 13 12 11 11 11 10
10 11 11 12 12 12 12 12 12 13 13 12 12 11 11 12 12 12 12 11 11 11 9 8 8 8 8 6 7 6 3 1 3 4 4 2 4 8 9 11 19 22 20 20 19 19 14 12 14 9 7 7 7 8 10 10 4 5 12 11 9 9 7 6 7 6 5 6 6 6 6 4 4 7 5 7 5 6 9 10 11 11 11 11 10 10 10 10
11 12 12 13 13 13 13 13 12 13 13 12 12 13 12 12 13 12 12 12 11 10 9 7 7 7 7 6 6 6 1 2 1 3 5 5 5 7 6 10 18 21 19 18 19 19 16 11 9 6 4 5 7 8 10 10 5 3 7 9 10 10 8 8 9 7 6 5 5 7 6 6 7 6 5 9 6 6 9 11 11 11 10 10 11 10 9 9
11 12 13 13 13 13 13 13 12 13 13 12 12 13 12 12 13 12 12 11 10 9 8 7 6 5 6 5 10 11 1 1 2 2 3 4 4 3 2 8 16 17 17 16 17 18 14 9 8 9 4 3 7 6 7 10 7 5 6 7 9 9 9 11 10 7 7 4 4 7 7 9 9 4 8 6 5 6 8 9 11 10 9 9 10 8 8 8
12 13 13 14 14 13 13 13 12 13 13 12 11 12 12 12 13 13 12 11 10 9 7 7 5 5 6 5 12 17 11 8 8 9 8 3 1 0 1 7 13 12 12 13 15 14 10 7 10 12 5 5 7 3 3 9 7 7 8 7 7 7 9 12 10 8 8 4 4 8 7 10 8 8 7 2 3 5 7 8 9 9 8 8 8 7 6 8
12 13 14 14 13 13 13 12 12 12 13 12 11 12 12 12 13 14 13 12 10 9 7 6 5 5 5 8 13 16 15 14 15 18 18 13 10 6 1 7 11 9 8 8 9 9 6 6 10 10 6 7 3 5 5 8 6 7 9 7 6 6 8 12 10 10 10 5 5 10 6 8 10 9 6 2 3 6 7 7 8 8 8 8 7 6 6 7
12 13 14 14 13 13 12 12 12 12 12 12 12 13 14 14 14 14 13 12 10 8 7 5 7 6 5 10 14 12 11 14 18 22 18 12 13 10 5 10 12 9 8 5 6 7 6 7 9 8 7 6 3 6 8 7 7 8 7 7 7 6 7 12 9 11 9 6 8 11 5 8 10 9 7 3 4 6 6 7 7 7 8 7 6 6 5 6
13 13 14 14 12 12 12 12 12 12 12 12 13 14 15 17 17 17 15 13 10 7 6 5 7 8 6 5 3 5 8 11 14 16 14 14 14 10 9 13 12 10 8 6 5 6 7 7 8 7 7 8 7 8 8 6 8 8 7 7 9 9 7 10 9 9 7 7 11 13 5 7 8 8 8 6 2 6 5 7 7 7 8 6 6 5 5 5
13 13 13 14 13 11 11 12 11 12 12 12 14 17 18 19 18 17 13 10 9 7 8 5 5 7 7 5 2 5 9 10 8 6 11 16 15 11 12 13 12 12 10 7 5 6 8 7 6 6 6 8 9 9 8 8 8 7 8 6 8 11 7 9 10 9 9 9 13 13 3 8 9 7 9 9 5 3 3 4 6 7 8 7 6 6 5 4
13 14 14 14 13 11 11 11 11 11 11 12 15 17 16 12 7 6 5 10 8 8 8 5 4 6 7 10 9 4 4 6 5 5 7 12 14 14 14 12 12 14 11 8 7 8 9 7 6 7 8 8 10 10 9 9 9 9 9 6 7 10 8 9 11 11 12 12 13 12 5 10 9 8 9 9 8 5 4 4 4 6 8 8 6 6 5 3
13 14 14 13 13 11 10 10 10 10 11 13 14 11 7 1 3 4 9 13 11 7 5 6 10 5 1 5 8 4 3 3 3 5 7 10 14 15 14 12 13 14 11 8 9 10 9 7 7 9 10 11 11 12 10 8 8 10 11 8 7 9 8 8 10 9 11 13 12 11 8 10 8 9 8 8 8 7 7 5 3 4 7 8 7 6 5 3
13 14 14 13 13 11 10 10 10 10 10 11 10 6 2 4 5 5 9 12 12 9 5 7 15 10 3 5 3 2 5 7 6 7 10 13 16 16 13 12 13 12 11 9 10 11 9 8 9 10 11 14 14 15 12 7 6 10 11 10 9 10 9 8 10 6 7 10 7 7 10 9 8 9 8 7 8 9 9 7 5 4 5 6 7 7 5 5
13 14 13 13 13 11 10 10 10 10 10 10 8 5 4 3 3 2 5 11 17 18 13 8 14 15 10 2 3 5 1 6 8 7 11 14 17 16 12 13 14 11 11 12 10 9 10 10 11 13 13 15 16 16 11 6 8 9 9 9 9 10 9 9 9 6 5 6 6 9 10 9 8 9 8 7 9 10 9 7 7 6 6 6 7 7 7 7
14 14 14 14 12 10 10 10 10 10 10 9 9 9 7 6 4 4 3 7 13 20 19 14 13 14 14 12 5 2 4 5 9 9 12 15 17 15 12 14 13 11 12 12 10 8 10 10 13 15 14 14 14 14 11 9 9 9 8 9 8 8 10 9 7 7 5 4 7 10 9 8 8 9 9 9 9 10 9 9 8 7 7 8 8 9 9 9
14 14 14 13 11 10 10 10 10 11 11 11 12 11 9 5 3 6 7 6 8 14 17 16 17 16 17 16 10 7 7 8 9 11 14 15 16 14 14 15 14 13 13 13 11 9 9 10 13 14 13 13 13 13 14 11 9 9 8 8 8 10 11 8 7 8 5 4 9 11 8 6 6 7 9 10 9 10 11 12 10 8 9 10 10 10 10 11
14 14 13 12 10 9 9 10 11 12 12 13 15 13 9 5 5 7 6 6 7 8 14 17 16 16 17 13 9 12 11 9 8 9 15 16 14 13 14 15 15 13 12 15 14 11 9 9 13 14 14 15 14 14 15 11 9 10 10 9 9 12 11 7 10 9 6 6 11 12 8 5 5 6 8 8 9 10 11 12 11 10 10 11 12 12 13 13
14 13 13 11 9 8 9 11 11 10 9 10 12 10 9 6 4 6 4 5 7 6 11 14 11 13 16 12 10 11 10 10 11 8 13 17 15 12 12 12 11 12 14 17 15 11 10 9 13 16 16 17 16 14 15 13 9 9 12 10 8 13 11 10 14 11 7 7 11 11 8 6 5 5 7 7 8 10 10 12 12 11 12 12 12 12 13 13
14 13 11 10 8 7 8 8 5 5 7 8 6 4 5 4 2 4 4 4 5 5 8 11 9 10 15 13 12 11 9 11 13 11 12 16 17 12 10 9 8 11 14 14 10 7 9 11 14 15 16 18 16 14 16 16 10 8 11 10 7 10 11 11 14 12 6 6 11 10 7 6 7 5 6 8 10 11 10 12 12 11 12 11 11 11 11 11
13 12 10 8 6 6 7 4 1 2 5 4 5 5 4 1 4 4 5 4 5 7 9 8 7 12 15 15 17 13 7 7 12 14 14 16 17 12 11 11 9 10 11 9 8 7 9 13 15 16 17 16 13 12 15 17 11 6 11 13 9 8 10 11 12 10 5 6 9 10 9 5 7 6 7 9 11 11 10 11 10 10 11 11 11 11 11 11
12 11 9 7 6 7 8 7 4 6 4 2 4 5 2 4 5 4 5 4 4 6 8 5 5 9 11 15 21 14 5 10 13 14 16 17 17 12 11 14 12 10 12 10 8 8 11 15 16 18 16 13 12 12 14 17 12 4 10 13 11 8 10 11 10 9 6 5 8 11 10 7 7 7 7 10 11 10 9 9 9 10 10 11 11 11 11 11
11 10 9 7 7 8 9 11 10 9 5 2 4 4 5 6 5 4 5 4 4 4 5 6 6 8 10 13 20 16 8 8 9 13 18 17 16 11 9 13 14 12 14 13 9 9 11 15 17 17 14 11 13 12 14 17 11 6 9 9 6 6 8 8 8 8 7 7 9 13 13 9 7 8 8 10 11 9 9 7 7 9 10 10 11 11 10 10
10 10 8 6 8 9 9 11 13 10 7 6 5 6 7 5 4 5 5 4 4 4 4 6 8 11 14 14 15 17 14 9 6 13 17 14 15 12 7 10 13 11 12 13 12 9 10 11 13 14 12 12 13 11 13 16 10 9 10 8 5 6 6 6 7 6 7 9 10 14 15 11 6 9 8 6 8 9 9 7 7 9 10 11 10 10 10 9
11 10 8 8 10 8 6 6 7 7 7 5 5 6 5 4 4 6 6 3 3 4 5 8 10 12 17 16 13 15 16 11 10 15 15 12 15 13 8 9 11 10 10 11 12 10 11 11 10 10 11 11 11 10 10 12 10 9 10 8 7 6 5 6 6 6 8 9 8 12 14 11 7 7 8 7 9 9 9 7 8 9 10 10 9 9 9 8
9 9 8 10 11 10 9 5 1 5 5 1 5 4 5 5 6 7 5 4 4 1 2 6 10 12 17 17 14 16 16 11 12 16 15 13 13 12 12 11 10 10 10 10 11 10 10 12 12 11 10 11 11 10 8 9 10 10 10 10 9 7 6 8 9 8 8 6 6 10 12 9 3 6 10 11 11 10 10 9 9 9 9 9 9 9 9 9
7 9 10 12 13 13 14 10 6 5 1 5 3 4 5 5 7 8 6 4 2 2 3 1 7 12 15 15 14 17 16 12 14 16 16 16 13 12 15 14 13 12 9 10 12 9 8 11 15 14 11 12 13 10 9 9 10 12 10 10 11 9 9 10 9 9 9 5 7 7 10 7 5 7 10 12 12 12 12 10 9 9 9 9 9 9 9 10
9 11 13 13 14 15 15 13 12 10 6 5 3 5 5 6 7 7 6 4 3 2 4 2 4 11 13 12 13 16 14 12 16 17 16 16 13 12 14 16 18 13 8 11 11 10 10 10 13 14 10 13 16 12 10 10 11 12 10 10 10 8 9 9 8 10 10 7 8 6 7 6 6 8 11 12 11 12 12 11 10 9 8 8 9 9 9 10
10 12 13 13 14 15 14 14 12 10 7 5 4 6 7 6 5 5 4 2 3 2 4 4 5 10 12 10 12 18 14 10 16 17 15 15 13 13 13 13 18 15 10 10 8 10 12 8 13 16 11 15 18 14 12 12 10 10 10 10 10 10 9 5 3 4 6 7 7 5 2 2 5 10 12 11 11 11 11 10 9 9 8 7 8 9 9 9
10 11 11 11 12 11 12 13 13 13 9 5 6 7 6 4 2 2 1 3 4 3 6 5 8 9 11 9 11 19 14 9 15 14 12 15 14 15 15 12 16 17 12 9 7 8 10 7 14 17 11 15 19 16 14 13 9 8 10 11 6 7 7 5 2 2 3 7 6 5 5 6 6 8 10 11 12 11 9 9 9 8 8 8 8 8 8 8
10 9 8 10 10 8 9 12 16 15 9 5 6 7 5 4 1 3 3 3 3 4 7 3 6 7 11 10 10 17 15 10 15 13 10 14 13 14 17 14 17 19 14 11 7 7 8 6 13 17 13 13 15 15 15 13 9 7 10 11 5 2 4 6 6 4 7 8 5 6 9 10 8 6 9 12 12 11 9 9 9 8 9 8 8 7 7 8
9 8 7 8 6 7 10 13 18 14 7 6 8 7 6 4 2 1 2 2 2 3 6 2 2 4 10 11 10 16 16 11 14 13 11 11 10 13 16 13 16 19 17 13 8 7 8 6 10 16 16 13 11 12 14 11 10 8 10 11 8 5 6 8 7 7 10 8 5 8 11 9 8 7 11 14 13 12 11 10 9 8 8 7 7 7 7 8
8 5 3 2 3 8 13 16 16 10 6 7 8 7 5 5 4 2 2 2 2 3 5 2 1 2 5 9 13 16 16 14 13 12 10 9 8 12 15 12 14 18 17 13 7 6 8 6 7 11 12 12 11 10 11 10 8 9 9 11 9 7 7 8 6 6 9 8 6 8 9 7 6 8 13 15 14 14 12 10 8 8 8 7 7 7 8 8
5 3 1 3 5 11 16 15 11 6 6 8 7 5 5 5 6 2 3 3 2 2 3 3 2 2 3 4 11 14 14 15 15 11 11 10 7 8 13 12 12 16 17 14 9 6 7 6 5 9 9 10 11 9 10 12 12 9 9 11 11 7 5 7 6 4 7 8 7 7 8 6 4 5 12 16 14 13 13 12 9 8 9 8 8 8 8 8
3 2 2 4 7 14 15 10 7 6 7 7 6 7 6 4 5 3 3 2 1 1 3 5 6 5 5 4 8 13 12 12 14 11 9 12 9 7 11 11 11 16 15 12 11 7 6 7 6 9 10 11 10 5 3 7 10 11 10 11 11 8 7 9 7 4 6 6 7 7 7 5 5 3 7 12 11 11 14 13 10 9 9 9 9 9 9 9
3 2 2 4 11 14 10 6 5 5 6 6 6 7 6 4 5 2 2 0 1 1 3 6 7 7 6 6 5 10 11 10 13 12 8 12 12 7 10 12 11 15 13 10 10 5 3 6 7 9 9 7 6 5 2 1 3 7 8 10 12 10 9 9 8 7 6 5 4 6 6 4 5 5 8 10 9 10 13 13 11 10 9 9 9 10 10 9
2 0 3 7 11 8 5 6 6 5 6 6 5 6 6 4 3 2 1 1 2 2 4 5 7 7 6 6 5 8 11 7 8 11 10 12 9 5 10 12 10 14 13 10 9 5 2 5 8 8 6 5 6 5 2 2 3 6 6 7 10 10 10 8 6 8 8 6 6 6 5 4 5 6 9 10 10 11 11 11 12 10 9 9 10 10 9 8
1 0 3 8 8 3 4 7 7 6 6 5 6 6 4 1 1 2 2 2 2 4 5 5 6 7 6 6 7 9 13 7 2 6 8 9 6 5 7 11 10 14 12 8 8 7 4 5 7 8 8 6 6 6 6 6 7 7 5 3 2 5 9 6 4 7 8 7 8 7 4 5 6 7 9 11 12 12 11 11 11 9 9 9 9 9 8 8
1 1 3 6 6 4 4 4 4 6 6 5 5 5 2 1 2 3 4 5 6 7 6 6 7 8 9 8 8 10 13 7 3 6 6 5 6 4 5 9 11 12 8 5 8 7 3 1 2 8 12 11 10 9 7 7 8 4 4 4 0 2 8 7 5 7 7 7 8 6 3 6 8 10 11 11 12 12 11 11 9 9 9 9 9 8 7 7
2 2 4 5 4 4 4 3 3 4 5 5 4 2 2 1 3 5 5 6 9 10 9 9 9 10 11 10 9 10 12 6 3 7 7 6 6 4 6 9 8 7 8 8 7 6 3 3 5 1 5 6 5 3 1 4 8 6 5 5 3 1 2 5 7 7 6 8 7 3 10 13 11 12 12 11 11 11 11 10 10 9 9 10 10 8 7 7
2 1 4 4 3 4 4 3 3 3 4 5 3 2 2 2 3 4 4 6 7 7 7 9 11 11 10 10 10 9 11 9 5 6 7 6 6 7 8 9 6 7 11 9 5 4 4 4 6 9 8 6 5 6 4 4 7 8 7 6 4 2 1 3 5 3 4 8 5 7 16 17 13 12 12 11 11 10 10 10 9 9 9 10 10 9 8 8
1 1 2 0 1 3 4 3 5 5 3 3 1 1 2 4 4 4 6 8 9 7 5 7 11 13 12 12 12 9 13 13 8 7 8 7 9 10 9 9 6 7 9 7 3 3 4 5 4 8 11 9 7 8 8 10 11 10 9 9 7 5 4 4 4 3 1 3 4 11 17 16 13 13 12 11 11 10 10 9 9 10 10 10 10 9 9 8
1 1 1 2 3 2 1 2 4 4 3 3 1 3 6 8 9 9 8 7 7 8 7 7 9 13 15 16 12 10 14 13 8 7 7 8 10 10 8 8 6 7 8 7 5 1 3 5 7 10 12 10 8 9 10 12 13 13 13 11 10 11 11 11 10 9 10 11 12 17 20 15 11 11 12 12 11 10 10 9 10 11 10 10 9 9 9 9
2 1 1 2 3 3 2 2 3 3 4 2 3 6 9 10 10 8 4 5 6 7 7 8 7 9 14 16 12 8 7 6 8 9 7 7 8 6 5 5 6 7 7 6 4 1 2 6 9 9 10 9 8 8 9 12 15 16 14 12 10 11 12 12 10 10 12 14 15 19 19 12 8 11 13 11 10 10 10 10 11 10 9 8 9 10 9 8
4 4 3 3 2 1 1 3 4 3 2 4 5 5 6 8 7 5 2 1 2 5 6 7 4 8 9 11 11 7 6 6 8 9 7 6 4 1 2 3 6 8 6 5 4 3 4 7 8 6 5 6 7 9 11 13 16 16 14 12 10 9 9 8 7 5 7 13 15 14 11 8 8 11 12 11 11 11 11 11 11 9 8 8 10 10 9 8
5 4 2 3 1 1 1 3 4 2 2 4 6 6 6 8 8 5 0 3 7 8 6 5 6 10 8 12 12 8 8 13 13 9 8 9 7 5 5 6 5 7 6 5 4 3 7 9 8 6 5 5 8 9 8 8 10 9 8 8 7 8 10 10 10 9 8 10 9 6 7 10 11 12 13 12 12 11 11 10 9 8 8 9 10 9 8 7
Wind_Direction
334 338 333 329 325 324 326 326 327 326 326 325 322 320 321 321 320 321 322 321 324 324 324 325 324 324 321 322 320 317 321 317 305 286 260 255 260 256 261 265 224 205 196 165 165 165 165 179 174 177 189 188 210 194 179 196 195 198 221 224 225 220 205 191 189 135 42 59 37 27 23 0 20 112 142 163 142 124 119 102 90 81 78 88 105 122 137 148
331 335 335 330 326 325 327 325 325 327 321 321 322 315 316 319 318 318 319 320 320 322 324 321 323 322 319 320 316 318 322 310 292 280 272 271 268 259 253 245 230 204 178 173 181 180 176 180 171 178 195 187 189 175 173 184 195 212 222 223 229 222 174 67 340 27 4 356 8 16 16 2 4 65 222 188 147 139 130 115 111 101 97 106 119 133 142 150
333 334 335 332 329 329 330 325 324 324 315 315 318 317 314 313 317 316 316 319 318 320 321 319 321 320 318 318 314 321 320 302 284 274 266 261 257 252 243 233 225 205 185 187 192 195 196 186 175 183 201 202 191 182 188 182 192 220 227 227 230 220 201 184 252 310 349 343 349 3 357 355 24 0 291 201 157 160 144 135 144 129 124 129 136 146 148 155
330 330 330 330 328 328 329 326 324 321 316 309 309 314 314 310 312 313 314 316 315 317 318 319 320 318 319 316 315 324 310 286 271 210 127 116 79 42 250 224 218 205 191 196 201 208 214 194 185 195 207 209 193 193 200 180 186 211 216 237 234 188 237 205 209 278 354 346 336 341 335 344 14 328 263 194 170 171 153 156 165 146 145 145 149 156 156 161
327 326 327 325 324 325 325 325 321 316 315 312 306 304 306 308 306 308 312 311 313 314 317 318 316 320 318 313 317 318 291 268 128 113 118 97 45 26 14 229 211 199 189 196 199 203 209 196 191 200 212 213 189 197 208 191 201 218 218 243 257 204 237 170 131 41 355 324 321 325 333 352 337 288 219 216 182 123 125 155 158 148 152 154 156 159 161 164
326 326 326 324 325 324 323 321 318 312 306 306 309 303 301 306 304 305 308 309 312 311 315 316 317 321 314 313 316 293 257 254 68 119 147 352 340 335 343 301 198 190 190 192 191 193 197 191 190 198 209 217 200 205 214 193 202 229 222 229 238 238 240 184 161 168 323 300 310 323 342 336 304 184 177 245 68 63 74 135 138 141 152 154 154 159 162 165
324 326 324 325 324 320 321 318 314 311 300 296 301 303 302 304 302 302 304 308 309 309 314 314 317 318 317 323 299 257 242 259 334 146 275 311 315 316 324 265 179 183 190 190 187 190 190 188 196 202 207 217 209 211 215 189 196 230 232 209 222 236 235 236 243 251 280 289 302 318 322 294 276 130 170 197 65 65 90 134 130 137 149 152 153 159 161 163
322 323 323 322 320 317 317 314 309 308 302 293 292 294 296 297 298 300 301 305 306 309 312 313 318 318 322 326 277 241 237 250 274 294 294 303 306 310 287 168 174 180 190 192 188 188 189 193 203 206 214 219 210 209 203 191 201 226 236 214 219 227 222 230 238 245 259 276 286 298 289 268 265 195 184 137 77 85 137 140 137 140 151 153 155 158 158 162
322 321 320 318 316 315 313 311 311 310 306 301 296 294 293 293 296 298 299 302 304 306 311 313 314 314 320 311 273 257 237 242 277 297 300 304 287 208 159 166 177 181 190 195 191 192 193 199 205 208 230 228 211 208 194 203 213 213 226 228 225 226 215 217 223 235 246 255 264 263 255 222 172 223 169 117 91 116 144 146 143 148 154 153 153 153 156 162
321 318 316 314 312 311 310 309 310 310 308 303 297 295 295 293 293 295 296 298 302 304 309 310 307 309 303 281 250 244 232 245 295 311 355 50 163 168 171 179 180 183 190 193 194 197 198 208 209 210 254 244 213 211 195 210 231 195 220 228 232 237 224 224 233 236 242 242 245 242 229 158 169 224 165 124 126 140 150 149 149 155 154 151 149 150 156 162
316 315 313 311 309 307 307 305 305 305 303 299 293 292 294 292 290 292 293 296 299 301 306 303 304 304 283 265 240 229 88 71 103 54 53 77 141 169 193 193 184 188 191 191 197 200 204 215 207 199 242 230 204 209 200 213 242 200 216 223 228 239 230 229 233 227 233 224 214 226 208 161 191 216 129 124 142 158 157 154 158 158 151 149 147 149 157 164
313 315 314 310 306 304 304 304 305 300 294 291 289 291 295 293 291 290 290 293 295 298 301 294 299 289 265 254 238 234 239 72 145 59 52 81 121 162 225 201 188 194 194 194 199 197 205 211 201 206 214 199 194 199 197 205 225 211 210 223 209 215 221 219 217 208 214 196 184 218 192 171 185 128 86 107 144 170 168 161 164 158 147 146 145 152 162 165
314 317 318 312 307 305 305 304 303 298 292 289 288 291 294 292 290 289 289 289 290 292 289 282 283 263 254 251 239 239 249 261 263 264 257 248 237 1 346 194 184 193 199 201 199 191 200 205 208 215 222 236 200 130 152 185 204 206 210 236 201 196 209 198 196 194 202 189 190 227 200 164 145 85 65 92 164 183 178 167 164 156 145 145 146 155 168 171
311 316 318 314 309 306 306 304 301 297 294 295 295 293 294 293 290 287 285 284 284 283 277 268 250 232 239 257 256 252 250 256 264 257 250 247 244 254 250 181 178 180 183 193 192 181 192 210 222 223 223 253 215 124 173 175 188 199 196 226 222 210 185 169 180 190 191 172 193 231 219 144 109 72 52 79 175 199 184 166 162 159 150 145 149 159 176 178
306 311 313 311 308 307 306 305 303 299 297 301 299 295 292 288 288 286 281 279 276 269 265 250 230 224 249 264 264 261 242 240 251 249 242 231 227 236 206 176 176 170 162 154 161 173 190 203 216 219 205 225 216 183 195 178 190 200 190 204 216 217 161 148 173 193 190 166 190 226 207 120 92 65 49 64 177 202 188 163 157 161 149 143 156 168 179 177
304 307 310 310 306 305 304 301 301 299 301 301 298 299 293 284 284 283 275 266 260 246 235 224 211 222 271 285 243 231 214 214 238 241 227 214 215 217 177 168 170 166 162 142 137 167 188 200 207 219 205 194 204 205 196 187 192 197 207 204 195 206 171 146 168 188 191 162 181 222 222 105 87 67 55 49 144 191 189 154 144 155 148 148 166 175 182 175
302 304 309 310 306 303 302 299 298 300 304 302 303 304 296 288 284 280 268 243 232 205 205 221 192 209 261 279 217 219 212 204 219 225 208 208 211 196 164 162 169 170 166 153 158 172 179 195 198 211 219 201 203 208 201 200 193 186 209 212 186 199 188 149 156 166 185 178 179 211 224 91 91 70 58 43 44 148 158 124 133 153 158 164 178 179 183 172
299 303 305 307 305 302 301 301 300 303 307 305 311 308 298 298 292 272 207 177 177 174 201 231 199 209 245 244 234 214 182 181 194 205 196 195 198 190 172 166 165 165 166 166 179 183 178 188 194 198 206 204 202 205 207 204 195 186 193 200 182 195 199 164 153 157 179 187 183 191 153 100 97 70 61 47 36 58 66 76 120 150 162 170 177 175 178 174
297 300 302 303 301 300 299 300 301 305 310 308 316 320 307 353 106 144 156 164 165 166 202 196 189 214 356 196 216 234 223 198 205 207 185 174 181 185 180 172 161 164 173 173 178 185 181 183 199 205 200 200 202 204 213 217 201 186 183 192 182 187 198 160 137 143 176 186 186 182 145 110 96 72 67 61 51 54 59 67 104 148 166 166 166 167 166 143
295 297 299 298 298 301 294 296 299 299 307 309 316 316 244 184 179 174 164 186 207 220 250 186 193 233 305 118 113 317 233 211 224 206 179 172 170 173 177 172 168 177 186 176 170 178 185 193 202 206 202 196 199 206 215 229 205 184 184 194 188 185 183 147 128 129 188 190 163 136 119 101 83 72 67 69 65 55 56 65 84 126 158 161 159 153 132 93
292 293 295 295 296 297 291 291 293 292 299 302 298 273 242 243 239 196 173 210 225 234 253 224 203 238 260 213 57 20 331 201 210 191 172 173 171 171 173 174 177 187 194 181 161 165 190 209 206 203 206 196 196 204 207 211 199 190 194 192 188 190 170 143 136 139 196 195 129 116 114 95 77 74 69 71 69 57 57 64 74 97 126 138 128 106 86 73
289 290 292 293 293 292 291 291 288 290 294 287 268 249 264 298 320 350 306 242 230 228 239 239 226 246 256 251 255 321 312 234 205 183 166 173 182 181 171 178 186 183 187 181 160 170 197 217 209 200 205 197 192 198 197 199 201 199 200 193 192 179 143 130 135 146 187 196 141 138 126 99 82 77 74 73 73 69 70 72 69 79 96 103 95 82 75 73
286 289 290 290 290 290 290 290 284 283 277 263 253 245 258 286 325 330 300 276 258 223 219 228 229 235 242 245 234 216 246 242 209 184 169 178 192 189 177 183 190 180 178 183 181 186 197 211 205 192 189 188 183 192 200 203 207 209 202 195 191 169 153 154 149 144 167 175 151 146 130 111 105 98 88 78 82 85 84 82 78 80 87 88 86 80 75 73
286 287 286 285 287 288 290 292 284 275 262 252 254 248 246 265 310 313 280 260 272 221 207 216 219 227 234 232 201 196 224 236 223 187 171 185 192 187 189 187 189 186 181 191 197 200 206 202 190 180 182 189 187 188 197 202 206 210 207 205 189 176 176 160 142 137 133 145 156 155 145 130 121 116 107 93 90 88 86 89 86 88 91 85 80 76 71 70
285 284 283 282 281 286 294 293 279 265 254 251 256 245 236 249 291 299 268 254 255 204 200 207 208 227 224 206 180 190 217 223 226 201 170 190 195 183 191 190 193 195 185 192 199 208 215 187 173 183 190 194 193 189 195 201 202 201 209 218 192 180 176 137 139 153 149 161 176 181 183 159 133 117 118 115 102 89 85 85 74 70 76 74 70 68 68 67
284 281 277 274 278 289 290 286 266 248 249 242 233 188 189 221 297 278 251 254 243 178 168 180 183 193 189 183 179 189 219 219 215 205 179 194 201 193 192 184 197 203 186 187 197 218 209 170 172 189 191 193 196 196 196 199 207 199 196 211 203 184 178 152 162 181 180 171 180 203 225 174 150 131 124 125 113 103 94 83 67 58 62 65 64 61 61 61
282 275 271 267 270 275 275 296 54 228 244 205 175 162 169 243 317 271 232 244 233 173 151 161 171 169 171 176 175 183 214 182 182 196 190 192 197 205 205 182 188 201 178 176 200 212 188 173 183 190 189 194 199 200 194 197 216 198 170 191 205 193 187 178 185 200 187 137 161 206 239 202 165 148 140 142 127 114 101 86 73 64 63 61 62 59 56 57
276 270 266 259 255 254 263 289 285 243 242 126 161 191 235 300 291 242 224 228 192 152 149 151 150 164 173 174 174 186 186 144 166 185 183 188 189 200 210 189 186 184 171 184 196 175 173 182 186 188 192 196 202 201 185 194 217 163 148 188 205 204 204 196 200 210 191 160 178 199 220 214 170 147 155 162 146 126 111 99 81 71 68 62 60 58 57 57
272 267 260 254 259 254 254 264 257 242 239 212 205 239 294 290 256 218 235 224 167 139 142 144 149 167 170 168 180 195 188 167 183 169 169 188 192 203 216 192 188 180 177 200 201 160 173 191 188 189 197 197 202 198 178 193 209 130 137 179 194 212 224 215 217 214 189 204 209 187 197 217 175 151 169 177 164 139 119 111 87 73 70 64 58 56 55 56
268 264 259 256 261 259 254 252 249 247 241 226 243 293 293 257 209 198 215 217 167 134 120 148 166 169 163 164 182 196 197 193 164 152 165 181 186 201 218 191 193 187 180 204 214 180 165 188 195 197 205 200 197 187 178 193 186 133 149 168 167 202 226 223 230 228 200 214 216 183 190 220 195 163 168 160 146 134 126 117 94 75 66 61 56 54 52 52
265 264 259 251 255 261 260 255 249 232 211 220 272 290 259 206 216 212 181 167 174 140 136 162 161 161 168 171 176 190 197 188 154 159 169 172 179 189 188 183 194 190 178 198 214 190 167 184 196 197 209 205 187 170 175 188 174 161 177 177 171 186 208 213 212 222 218 214 199 169 182 218 214 170 154 123 110 121 128 115 96 81 69 63 56 56 54 52
264 262 256 250 254 255 247 247 141 146 158 262 291 259 208 187 217 220 171 163 206 175 132 164 159 167 180 180 173 179 188 180 167 171 170 171 180 186 188 185 183 185 185 189 193 185 184 194 188 185 200 204 189 175 174 181 184 196 196 182 184 180 189 208 201 204 215 196 151 155 178 208 187 130 140 131 113 106 105 97 91 84 75 70 63 59 56 53
269 267 261 255 253 247 243 238 212 192 242 318 278 210 211 200 191 204 199 173 170 340 342 173 170 179 187 188 176 176 181 172 170 175 173 176 179 183 195 192 185 192 190 183 186 181 186 195 191 189 191 200 206 195 180 183 192 203 200 190 193 184 185 203 198 198 205 161 118 157 185 182 129 116 121 120 114 107 101 96 92 86 77 71 65 62 57 53
275 272 268 262 253 247 242 234 227 233 261 281 225 190 222 217 178 191 206 146 95 276 280 299 183 182 191 199 177 173 183 172 170 177 174 178 182 183 193 190 188 197 189 182 191 187 188 191 190 195 189 190 207 212 188 183 194 201 205 204 205 199 193 200 200 200 198 157 122 162 191 177 157 128 108 112 117 111 104 99 94 88 82 76 68 63 58 52
283 277 270 264 255 247 237 226 221 220 223 232 211 198 213 207 171 180 206 98 71 249 272 288 222 186 185 198 179 176 188 174 171 181 177 179 188 184 187 187 187 194 192 185 187 189 199 195 178 189 194 184 199 215 197 187 196 198 205 210 213 216 203 185 212 217 186 156 136 152 157 99 122 115 112 124 121 109 105 100 94 85 82 78 66 59 54 48
291 281 270 258 250 240 224 213 203 197 201 215 212 208 212 208 154 102 57 19 39 344 304 262 207 186 177 184 179 179 188 179 175 183 181 183 189 184 184 183 185 195 197 187 180 186 201 190 165 177 191 187 195 203 193 195 195 183 203 206 205 237 215 164 117 51 155 173 159 152 132 112 121 121 131 141 123 113 114 103 96 88 82 75 62 54 49 45
291 287 272 256 246 222 202 193 182 183 197 220 220 219 222 228 308 50 52 30 53 1 313 240 186 194 182 175 177 179 182 178 177 182 182 186 191 186 186 182 184 196 199 193 193 191 199 181 162 176 188 185 193 194 189 204 205 183 201 195 168 262 229 187 177 158 188 195 175 172 164 152 160 155 154 156 138 130 129 114 108 99 88 80 68 59 53 51
293 292 274 259 237 193 180 173 171 179 201 224 227 235 235 230 239 37 22 359 25 342 307 253 165 214 189 175 172 176 180 180 180 183 183 186 186 183 187 183 184 194 198 197 196 190 205 191 163 185 191 172 181 193 187 203 222 217 203 183 177 201 199 199 200 184 194 197 166 175 177 173 180 166 163 165 154 150 144 124 117 108 100 95 83 74 65 58
283 277 261 244 179 168 166 166 172 186 211 216 220 226 233 240 237 255 338 318 335 331 298 291 19 277 217 188 173 171 180 184 181 183 186 183 177 182 189 183 182 193 198 199 191 175 207 218 169 183 188 166 174 199 191 186 207 228 212 187 195 213 194 191 199 196 201 196 167 173 187 194 181 163 169 165 155 158 148 126 123 113 105 101 86 75 64 55
260 250 164 118 146 156 158 166 182 204 213 218 227 220 219 240 231 219 6 330 330 345 296 309 306 294 314 208 184 176 182 186 183 187 191 180 159 176 192 186 181 188 193 199 199 176 196 227 181 162 169 174 182 198 201 186 183 199 207 193 194 204 190 182 191 216 216 200 178 179 192 186 131 143 170 162 157 161 143 128 130 116 103 93 79 72 62 55
246 237 140 127 150 154 156 172 198 208 214 222 233 227 224 244 230 196 55 29 27 21 289 300 289 282 319 284 204 181 180 187 186 188 190 180 174 184 191 190 184 180 184 197 200 187 195 213 188 164 175 190 183 173 205 200 189 191 199 199 194 193 188 182 181 201 217 208 190 191 191 154 83 74 140 141 144 146 131 127 127 113 104 95 81 74 66 60
239 217 115 131 154 160 171 199 200 203 222 221 221 226 224 239 248 255 31 56 228 286 267 276 274 271 277 275 239 194 188 189 185 187 188 182 186 184 173 180 187 177 178 193 186 173 210 212 187 174 179 173 130 82 30 274 204 202 205 201 193 191 198 198 187 183 197 202 189 204 201 137 82 81 105 110 115 121 122 122 118 112 104 97 88 78 72 66
208 147 85 134 154 172 217 216 192 207 227 214 221 236 228 230 257 287 358 331 296 257 244 254 261 264 253 247 260 212 186 178 185 188 186 179 170 130 152 169 183 180 183 193 178 156 201 203 181 170 162 128 96 89 110 157 201 209 202 198 198 197 202 211 195 175 184 190 186 204 199 142 100 97 104 107 109 111 114 114 113 112 105 97 90 80 75 70
167 92 109 147 170 241 254 206 192 206 215 212 224 232 231 267 302 287 281 278 259 242 248 257 253 263 258 241 253 217 180 166 177 176 181 179 144 87 149 169 183 188 189 189 176 170 192 194 181 175 168 160 160 163 165 177 197 203 178 168 228 204 192 193 176 179 192 194 196 208 190 133 123 121 113 110 111 108 107 109 109 111 108 100 92 82 74 70
204 161 119 162 211 264 254 229 224 212 207 212 224 228 246 306 2 334 294 264 255 253 260 269 262 271 274 258 252 222 185 161 141 162 170 159 120 95 160 172 191 197 182 159 167 169 169 163 204 197 187 184 184 181 179 177 179 173 139 138 79 210 193 185 178 197 200 184 200 221 151 117 128 133 124 115 115 111 107 107 104 107 108 102 94 84 75 71
243 162 133 169 217 242 239 271 281 236 215 212 221 247 280 292 353 337 299 269 265 254 251 268 272 273 270 249 230 207 179 156 155 169 162 142 119 110 158 168 186 173 115 102 132 141 117 50 26 57 171 175 162 134 96 167 161 149 136 141 125 70 212 210 205 210 186 171 197 177 128 136 145 143 134 125 120 115 114 114 112 111 107 99 93 87 80 75
266 177 149 166 197 215 219 227 237 240 229 215 209 29 343 290 329 320 255 236 247 238 241 259 252 254 254 216 197 185 168 172 190 163 143 137 124 114 137 154 152 127 113 111 128 139 125 87 45 54 75 79 72 69 72 111 123 122 119 119 113 80 350 212 200 201 171 179 188 120 126 140 150 146 137 129 123 117 116 116 114 113 106 100 97 92 86 78
270 167 140 187 236 199 198 203 212 215 200 186 141 45 289 256 246 242 226 228 230 207 212 240 231 240 240 197 178 169 166 173 176 149 139 142 136 127 133 137 128 141 144 129 128 148 116 99 85 87 88 82 74 77 88 96 93 87 84 82 79 72 78 101 87 31 25 175 144 124 126 131 137 137 128 121 119 114 112 111 111 110 105 103 101 94 87 77
282 167 129 337 308 242 209 201 207 190 132 101 130 214 240 244 239 240 233 231 228 199 207 247 236 225 214 190 173 163 167 171 159 144 147 149 149 146 140 132 132 163 160 126 106 117 87 101 127 116 100 94 93 88 91 99 96 82 69 65 69 72 75 79 74 68 76 85 100 115 115 110 116 120 111 110 111 110 111 109 104 103 100 99 95 86 80 74
2 358 23 331 286 253 239 187 172 141 120 147 220 226 237 243 253 267 245 219 223 190 196 240 234 194 183 176 161 138 146 164 157 155 153 143 148 153 142 137 141 149 145 123 114 117 90 134 148 129 99 95 103 103 101 100 95 83 69 60 66 71 67 68 71 72 79 91 105 110 106 100 104 110 109 112 113 111 110 102 96 97 97 93 87 78 72 68
343 320 320 303 267 199 176 153 136 116 146 197 221 242 244 242 265 318 16 175 168 141 184 222 163 122 134 135 119 90 65 87 123 136 127 105 102 87 86 121 143 144 134 118 123 133 120 142 171 165 107 101 121 122 115 108 98 85 66 51 55 68 68 62 59 60 98 121 125 118 114 118 123 119 114 113 112 110 104 97 94 95 91 85 82 78 71 64
339 328 323 295 269 139 160 143 130 143 207 206 229 259 273 276 288 296 170 101 95 119 207 237 85 77 80 85 76 55 69 90 95 94 93 82 60 52 73 78 100 129 132 121 118 134 132 141 176 182 119 120 147 137 128 135 123 92 51 27 41 79 93 83 68 71 101 132 138 127 125 130 130 127 118 112 109 104 98 95 97 99 93 84 83 81 73 67